Location: Killam
(52.7910°N, 111.8608°W)
Time: 18:27:36
(UTC+00:00)

Vanguard 2 - All Passes

Search period start: 18 February 2026 00:00
Search period end: 28 February 2026 00:00
Orbit: 553 x 2897 km, 32.9° (Epoch: 17 February)

Date Brightness Start Highest point End Pass type
(mag) Time Alt. Az. Time Alt. Az. Time Alt. Az.
24 Feb - 11:37:01 10° SSW 11:39:14 11° S 11:41:13 10° SSE visible
25 Feb - 11:47:33 10° SSW 11:50:52 13° S 11:53:41 10° SSE visible
26 Feb - 09:51:25 10° S 09:55:13 13° SSE 09:58:29 10° SE visible
26 Feb - 11:58:34 10° SW 12:02:28 14° S 12:05:42 10° SSE visible
27 Feb - 10:01:25 10° SSW 10:06:51 15° S 10:11:12 10° SE visible
27 Feb - 12:09:51 10° SW 12:14:03 15° S 12:17:28 10° SSE visible
